This is the latest recevied weather packets stored in our database for station/object DM4XI-13. If no packets are shown the sender has not sent any weather packets the latest 10 day(s).
| Time | Temp. | Humidity | Pressure | Rain* | Wind** | Luminosity | Snow |
|---|---|---|---|---|---|---|---|
| 1777298830 | 20° C | 21% | 1017.6 hPa | 0 mm | 0 m/s | 376 W/m² | - |
| 1777298769 | 20.56° C | 21% | 1017.6 hPa | 0 mm | 0.89 m/s, 188° | 332 W/m² | - |
| 1777298708 | 20.56° C | 22% | 1017.6 hPa | 0 mm | 0.89 m/s, 160° | 282 W/m² | - |
| 1777298647 | 20.56° C | 22% | 1017.7 hPa | 0 mm | 0.89 m/s, 162° | 270 W/m² | - |
| 1777298586 | 20.56° C | 22% | 1017.7 hPa | 0 mm | 1.34 m/s, 13° | 314 W/m² | - |
| 1777298525 | 20° C | 21% | 1017.5 hPa | 0 mm | 0.89 m/s, 17° | 353 W/m² | - |
| 1777298465 | 20° C | 23% | 1017.7 hPa | 0 mm | 0.45 m/s, 292° | 476 W/m² | - |
| 1777298403 | 20° C | 21% | 1017.7 hPa | 0 mm | 0.45 m/s, 65° | 462 W/m² | - |
| 1777298343 | 20° C | 21% | 1017.6 hPa | 0 mm | 0.45 m/s, 163° | 497 W/m² | - |
| 1777298282 | 20° C | 21% | 1017.7 hPa | 0 mm | 0.89 m/s, 313° | 551 W/m² | - |
| 1777298220 | 20° C | 22% | 1017.9 hPa | 0 mm | 1.79 m/s, 354° | 550 W/m² | - |
| 1777298159 | 20° C | 22% | 1017.6 hPa | 0 mm | 0.45 m/s, 179° | 393 W/m² | - |
| 1777298098 | 20° C | 20% | 1017.7 hPa | 0 mm | 0.89 m/s, 84° | 387 W/m² | - |
| 1777298038 | 20° C | 22% | 1017.6 hPa | 0 mm | 0.45 m/s, 206° | 408 W/m² | - |
| 1777297976 | 20° C | 23% | 1017.7 hPa | 0 mm | 1.34 m/s, 15° | 372 W/m² | - |
| 1777297915 | 20° C | 23% | 1017.8 hPa | 0 mm | 0.89 m/s, 0° | 448 W/m² | - |
| 1777297854 | 20° C | 24% | 1017.6 hPa | 0 mm | 0.45 m/s, 359° | 446 W/m² | - |
| 1777297793 | 20° C | 23% | 1017.8 hPa | 0 mm | 0.45 m/s, 264° | 429 W/m² | - |
| 1777297732 | 20° C | 23% | 1017.7 hPa | 0 mm | 1.34 m/s, 290° | 464 W/m² | - |
| 1777297671 | 20° C | 22% | 1017.8 hPa | 0 mm | 0.89 m/s, 355° | 453 W/m² | - |
| 1777297611 | 20° C | 22% | 1017.6 hPa | 0 mm | 0.89 m/s, 18° | 474 W/m² | - |
| 1777297549 | 20° C | 24% | 1017.7 hPa | 0 mm | 0.45 m/s, 299° | 484 W/m² | - |
| 1777297488 | 20° C | 26% | 1017.7 hPa | 0 mm | 0.45 m/s, 153° | 503 W/m² | - |
| 1777297427 | 20° C | 26% | 1017.9 hPa | 0 mm | 0.45 m/s, 112° | 472 W/m² | - |
| 1777297367 | 20° C | 24% | 1017.9 hPa | 0 mm | 0.45 m/s, 352° | 468 W/m² | - |
* Rain latest hour (hover to see other rain measurements)
** Current wind speed in m/s (hover to see current wind gust speed)